Hourly Weather Bolshie Ploty

Today, 25 July, Sunday

Time Temperature Precipitation Wind Pressure Humidity
00:00 +17°C° 0 mm 2 mps 742 mmHg 59%
01:00 +16°C° 0 mm 2 mps 743 mmHg 59%
02:00 +16°C° 0 mm 2 mps 743 mmHg 59%
03:00 +16°C° 0 mm 1 mps 743 mmHg 61%
04:00 +16°C° 0 mm 1 mps 743 mmHg 62%
05:00 +16°C° 0 mm 1 mps 744 mmHg 62%
06:00 +16°C° 0 mm 1 mps 744 mmHg 63%
07:00 +19°C° 0 mm 1 mps 744 mmHg 59%
08:00 +20°C° 0 mm 1 mps 744 mmHg 55%
09:00 +21°C° 0 mm 1 mps 745 mmHg 51%
10:00 +22°C° 0 mm 1 mps 745 mmHg 46%
11:00 +24°C° 0 mm 1 mps 745 mmHg 41%
12:00 +25°C° 0 mm 1 mps 745 mmHg 36%
13:00 +25°C° 0 mm 1 mps 745 mmHg 36%
14:00 +25°C° 0 mm 1 mps 745 mmHg 37%
15:00 +25°C° 0 mm 1 mps 745 mmHg 38%
16:00 +24°C° 0 mm 1 mps 745 mmHg 41%
17:00 +24°C° 0 mm 1 mps 745 mmHg 44%
18:00 +24°C° 0 mm 1 mps 745 mmHg 47%
19:00 +23°C° 0 mm 1 mps 745 mmHg 48%
20:00 +22°C° 0 mm 1 mps 746 mmHg 49%
21:00 +21°C° 0 mm 1 mps 746 mmHg 50%
22:00 +21°C° 0 mm 1 mps 746 mmHg 51%
23:00 +20°C° 0 mm 1 mps 746 mmHg 51%

Tomorrow, 26 July, Monday

Time Temperature Precipitation Wind Pressure Humidity
00:00 +20°C° 0 mm 1 mps 746 mmHg 52%
01:00 +20°C° 0 mm 1 mps 746 mmHg 52%
02:00 +20°C° 0 mm 1 mps 747 mmHg 52%
03:00 +20°C° 0 mm 1 mps 747 mmHg 52%
04:00 +20°C° 0 mm 1 mps 747 mmHg 54%
05:00 +20°C° 0 mm 1 mps 747 mmHg 55%
06:00 +20°C° 0 mm 1 mps 747 mmHg 56%
07:00 +21°C° 0 mm 1 mps 747 mmHg 54%
08:00 +22°C° 0 mm 1 mps 747 mmHg 51%
09:00 +23°C° 0 mm 1 mps 748 mmHg 48%
10:00 +24°C° 0 mm 2 mps 748 mmHg 44%
11:00 +26°C° 0 mm 2 mps 748 mmHg 41%
12:00 +27°C° 0 mm 2 mps 748 mmHg 37%
13:00 +27°C° 0 mm 2 mps 747 mmHg 37%
14:00 +27°C° 0 mm 2 mps 747 mmHg 37%
15:00 +27°C° 0 mm 2 mps 747 mmHg 37%
16:00 +27°C° 0 mm 2 mps 747 mmHg 39%
17:00 +26°C° 0 mm 1 mps 747 mmHg 41%
18:00 +26°C° 0 mm 1 mps 747 mmHg 43%
19:00 +24°C° 0 mm 1 mps 747 mmHg 46%
20:00 +23°C° 0 mm 1 mps 747 mmHg 50%
21:00 +22°C° 0 mm 1 mps 747 mmHg 53%
22:00 +21°C° 0 mm 1 mps 747 mmHg 57%
23:00 +20°C° 0 mm 1 mps 747 mmHg 60%

Day after tomorrow, 27 July, Tuesday

Time Temperature Precipitation Wind Pressure Humidity
00:00 +20°C° 0 mm 1 mps 747 mmHg 63%
01:00 +19°C° 0 mm 1 mps 747 mmHg 65%
02:00 +19°C° 0 mm 1 mps 747 mmHg 67%
03:00 +19°C° 0 mm 1 mps 747 mmHg 68%
04:00 +19°C° 0 mm 1 mps 747 mmHg 69%
05:00 +19°C° 0 mm 1 mps 747 mmHg 70%
06:00 +19°C° 0 mm 1 mps 747 mmHg 71%
07:00 +21°C° 0 mm 1 mps 747 mmHg 65%
08:00 +23°C° 0 mm 1 mps 747 mmHg 60%
09:00 +25°C° 0 mm 1 mps 747 mmHg 54%
10:00 +26°C° 0 mm 1 mps 747 mmHg 50%
11:00 +27°C° 0 mm 1 mps 747 mmHg 45%
12:00 +29°C° 0 mm 1 mps 747 mmHg 40%
13:00 +28°C° 0 mm 1 mps 746 mmHg 41%
14:00 +28°C° 0 mm 1 mps 746 mmHg 42%
15:00 +28°C° 0 mm 1 mps 746 mmHg 42%
16:00 +27°C° 0 mm 2 mps 746 mmHg 47%
17:00 +26°C° 0 mm 2 mps 745 mmHg 51%
18:00 +25°C° 0 mm 2 mps 745 mmHg 56%
19:00 +24°C° 0.1 mm 2 mps 745 mmHg 59%
20:00 +23°C° 0.1 mm 1 mps 745 mmHg 62%
21:00 +22°C° 0.1 mm 1 mps 745 mmHg 65%
22:00 +21°C° 0 mm 1 mps 745 mmHg 66%
23:00 +21°C° 0 mm 1 mps 745 mmHg 67%

28 July, Wednesday

Time Temperature Precipitation Wind Pressure Humidity
00:00 +20°C° 0 mm 1 mps 745 mmHg 68%
01:00 +20°C° 0 mm 1 mps 744 mmHg 69%
02:00 +19°C° 0 mm 1 mps 744 mmHg 70%
03:00 +19°C° 0 mm 1 mps 744 mmHg 71%
04:00 +19°C° 0 mm 1 mps 744 mmHg 70%
05:00 +20°C° 0 mm 1 mps 744 mmHg 70%
06:00 +19°C° 0 mm 2 mps 744 mmHg 69%
07:00 +21°C° 0 mm 2 mps 744 mmHg 62%
08:00 +24°C° 0 mm 2 mps 743 mmHg 54%
09:00 +26°C° 0 mm 3 mps 743 mmHg 46%
10:00 +28°C° 0 mm 3 mps 743 mmHg 42%
11:00 +29°C° 0 mm 4 mps 743 mmHg 38%
12:00 +30°C° 0 mm 4 mps 742 mmHg 34%
13:00 +30°C° 0 mm 5 mps 742 mmHg 36%
14:00 +30°C° 0 mm 5 mps 741 mmHg 39%
15:00 +29°C° 0 mm 5 mps 741 mmHg 41%
16:00 +27°C° 0.8 mm 4 mps 741 mmHg 56%
17:00 +24°C° 0.8 mm 3 mps 741 mmHg 71%
18:00 +20°C° 0.8 mm 3 mps 741 mmHg 86%
19:00 +20°C° 0.1 mm 3 mps 740 mmHg 88%
20:00 +19°C° 0.1 mm 3 mps 740 mmHg 89%
21:00 +19°C° 0.1 mm 3 mps 739 mmHg 91%
22:00 +19°C° 0.4 mm 3 mps 739 mmHg 92%
23:00 +19°C° 0.4 mm 3 mps 738 mmHg 93%

29 July, Thursday

Time Temperature Precipitation Wind Pressure Humidity
00:00 +19°C° 0.4 mm 3 mps 738 mmHg 94%
01:00 +19°C° 0.1 mm 3 mps 738 mmHg 95%
02:00 +19°C° 0.1 mm 3 mps 737 mmHg 96%
03:00 +19°C° 0.1 mm 3 mps 737 mmHg 96%
04:00 +19°C° 0 mm 4 mps 737 mmHg 95%
05:00 +19°C° 0 mm 4 mps 737 mmHg 94%
06:00 +18°C° 0 mm 4 mps 737 mmHg 93%
07:00 +20°C° 0.1 mm 4 mps 737 mmHg 85%
08:00 +22°C° 0.1 mm 5 mps 737 mmHg 77%
09:00 +23°C° 0.1 mm 5 mps 737 mmHg 69%
10:00 +26°C° 0 mm 6 mps 737 mmHg 61%
11:00 +27°C° 0 mm 6 mps 737 mmHg 52%
12:00 +29°C° 0 mm 7 mps 737 mmHg 43%
13:00 +29°C° 0 mm 7 mps 737 mmHg 42%
14:00 +30°C° 0 mm 7 mps 737 mmHg 40%
15:00 +30°C° 0 mm 7 mps 737 mmHg 39%
16:00 +29°C° 0 mm 7 mps 737 mmHg 42%
17:00 +28°C° 0 mm 6 mps 737 mmHg 45%
18:00 +28°C° 0 mm 6 mps 736 mmHg 49%
19:00 +26°C° 0 mm 5 mps 737 mmHg 53%
20:00 +25°C° 0 mm 4 mps 737 mmHg 57%
21:00 +22°C° 0 mm 3 mps 737 mmHg 61%
22:00 +22°C° 0 mm 3 mps 737 mmHg 62%
23:00 +22°C° 0 mm 3 mps 737 mmHg 63%

30 July, Friday

Time Temperature Precipitation Wind Pressure Humidity
00:00 +22°C° 0 mm 3 mps 737 mmHg 64%
01:00 +20°C° 0 mm 3 mps 737 mmHg 69%
02:00 +19°C° 0 mm 3 mps 737 mmHg 74%
03:00 +18°C° 0 mm 3 mps 737 mmHg 79%
04:00 +18°C° 0 mm 3 mps 738 mmHg 80%
05:00 +18°C° 0 mm 3 mps 738 mmHg 80%
06:00 +18°C° 0 mm 3 mps 738 mmHg 81%
07:00 +20°C° 0 mm 4 mps 738 mmHg 74%
08:00 +22°C° 0 mm 4 mps 739 mmHg 67%
09:00 +25°C° 0 mm 5 mps 739 mmHg 61%
10:00 +26°C° 0 mm 5 mps 739 mmHg 56%
11:00 +27°C° 0 mm 5 mps 739 mmHg 51%
12:00 +28°C° 0 mm 5 mps 739 mmHg 46%
13:00 +29°C° 0 mm 5 mps 739 mmHg 43%
14:00 +30°C° 0 mm 5 mps 739 mmHg 41%
15:00 +30°C° 0 mm 4 mps 739 mmHg 39%
16:00 +30°C° 0 mm 4 mps 739 mmHg 40%
17:00 +30°C° 0 mm 4 mps 739 mmHg 41%
18:00 +29°C° 0 mm 3 mps 739 mmHg 42%
19:00 +27°C° 0 mm 3 mps 739 mmHg 47%
20:00 +26°C° 0 mm 2 mps 739 mmHg 52%
21:00 +24°C° 0 mm 1 mps 740 mmHg 57%
22:00 +23°C° 0 mm 1 mps 739 mmHg 59%
23:00 +22°C° 0 mm 1 mps 739 mmHg 61%
Show more

We Need Your Consent

Meteoprog and our Service Providers may store and access personal data such as cookies, device identifiers or other similar technologies on your device and process such data to personalise content and ads, as well as provide social media features and to analyse the traffic.

  • Store and/or access information on your device

    Cookies, device identifiers or other information can be stored or accessed on your device for the purposes indicated above.

  • Personalised ads and content, ad and content measurement, audience insights, and products development

    Ads and content can be personalised based on a profile. More data can be added to better personalise ads and content. Ad and content performance can be measured. Insights about the audience who saw the ads and content can be derived. Such data can be used to develop or improve user’s experience, systems and software.

By clicking ‘I Agree’ you will allow the use of indicated cookies, device identifiers, web beacons or other similar technologies. Your settings can be changed in the browser on your device.

For certain purposes, legitimate interests may be relied on, rather than consent. You can read more about this in our Privacy and Cookie Policy.